Погода в Девичьем

Россия / Брянская область     52°46′33″N   34°40′47″E
темп.,
°C
ветер,
м/с
пор.,
м/с
влажн.,
%
обл.,
%
осадки,
мм/ч
давл.,
гПа
погр.,
м
7 мая, пт
пт700:00+6з2388100 0.1 101144
03:00+5зюз2288100 0.1 101226
06:00+5зюз238912 0.0 101243
09:00+10юз34635 0.0 1013502
12:00+14ююз464168 0.0 10132195
15:00+15ююз5745100 0.0 10122211
18:00+13ю486192 0.0 1011478
21:00+10ююв61471100 0.0 1010541
8 мая, сб
сб800:00+10ю81681100 1.3 1009709
03:00+9ююв71593100 4.4 1007769
06:00+9ю61394100 3.1 1004762
09:00+10ююз4998100 6.5 1003579
12:00+10з3591100 1.7 1004290
15:00+11юз4786100 1.8 1004626
18:00+7зюз8119095 0.6 1005801
21:00+4з81396100 1.0 1006994
9 мая, вс
вс900:00+3зсз101896100 4.6 10091035
03:00+4зсз81593100 7.5 1012895
06:00+3зсз7139072 0.1 1014747
09:00+6сз7107944 0.1 1017976
12:00+10сз8105893 0.1 10181973
15:00+11ссз71046100 0.1 10202439
18:00+11сз695455 0.0 10221433
21:00+5сз35714 0.0 102464
10 мая, пн
пн1000:00+4сз37815 0.0 1026104
03:00+3ссз36845 0.0 102789
06:00+3с378075 0.0 1029141
09:00+10с475835 0.0 1029511
12:00+13ссв57465 0.0 10281488
15:00+15ссв68431 0.0 10271672
18:00+14ссв59582 0.0 1027895
21:00+8св48810 0.0 1028125
11 мая, вт
вт1100:00+6ссв413814 0.0 1027241
03:00+6ссв513785 0.0 1027252
06:00+6св513790 0.0 1027323
09:00+12св710700 0.0 1026512
12:00+16всв79650 0.0 1025819
15:00+19всв796552 0.0 10241231
18:00+16всв5107794 0.0 1024489
21:00+12вюв36948 0.1 1025110